| time (UTC) | temp F | wind direction | speed knots | gust knots | rain 1hr in | rain 24hr in | rain mn in | humidity % | barometer mb |
| 20260504234708 | 69 | 173 | 5.2 | 7.8 | 0.00 | 0.00 | 0.00 | 40 | 1009.3 |
| 20260504233655 | 70 | 189 | 3.5 | 5.2 | 0.00 | 0.00 | 0.00 | 39 | 1009.2 |
| 20260504233208 | 70 | 195 | 2.6 | 3.5 | 0.00 | 0.00 | 0.00 | 39 | 1009.4 |
| 20260504232134 | 71 | 184 | 1.7 | 7.8 | 0.00 | 0.00 | 0.00 | 38 | 1009.0 |
| 20260504231121 | 71 | 240 | 3.5 | 5.2 | 0.00 | 0.00 | 0.00 | 38 | 1009.0 |
| 20260504230107 | 71 | 216 | 5.2 | 6.1 | 0.00 | 0.00 | 0.00 | 37 | 1009.3 |
| 20260504225053 | 72 | 208 | 2.6 | 8.7 | 0.00 | 0.00 | 0.00 | 37 | 1009.0 |
| 20260504224039 | 71 | 210 | 3.5 | 6.1 | 0.00 | 0.00 | 0.00 | 37 | 1009.2 |
| 20260504223026 | 72 | 179 | 1.7 | 6.1 | 0.00 | 0.00 | 0.00 | 36 | 1009.2 |
| 20260504222032 | 72 | 242 | 3.5 | 7.0 | 0.00 | 0.00 | 0.00 | 36 | 1009.3 |
| 20260504220959 | 72 | 214 | 4.3 | 6.1 | 0.00 | 0.00 | 0.00 | 35 | 1009.3 |
| 20260504215945 | 72 | 182 | 4.3 | 11.3 | 0.00 | 0.00 | 0.00 | 35 | 1009.3 |
| 20260504214952 | 73 | 237 | 2.6 | 6.1 | 0.00 | 0.00 | 0.00 | 35 | 1009.4 |
| 20260504213918 | 72 | 201 | 5.2 | 9.6 | 0.00 | 0.00 | 0.00 | 35 | 1009.3 |
| 20260504212905 | 73 | 197 | 4.3 | 7.8 | 0.00 | 0.00 | 0.00 | 35 | 1009.3 |
| 20260504211850 | 71 | 162 | 3.5 | 7.0 | 0.00 | 0.00 | 0.00 | 37 | 1009.4 |
| 20260504210857 | 72 | 235 | 2.6 | 7.8 | 0.00 | 0.00 | 0.00 | 36 | 1009.4 |
| 20260504205824 | 73 | 204 | 4.3 | 11.3 | 0.00 | 0.00 | 0.00 | 36 | 1009.2 |
| 20260504204810 | 72 | 222 | 4.3 | 8.7 | 0.00 | 0.00 | 0.00 | 36 | 1009.4 |
| 20260504203756 | 73 | 241 | 4.3 | 7.8 | 0.00 | 0.00 | 0.00 | 35 | 1009.2 |
| 20260504202742 | 71 | 209 | 3.5 | 6.1 | 0.00 | 0.00 | 0.00 | 36 | 1009.5 |
| 20260504201728 | 73 | 203 | 6.1 | 9.6 | 0.00 | 0.00 | 0.00 | 35 | 1009.2 |
| 20260504200714 | 72 | 192 | 3.5 | 11.3 | 0.00 | 0.00 | 0.00 | 35 | 1009.7 |
| 20260504195701 | 71 | 235 | 6.1 | 11.3 | 0.00 | 0.00 | 0.00 | 35 | 1009.5 |
| 20260504194707 | 72 | 212 | 3.5 | 6.1 | 0.00 | 0.00 | 0.00 | 36 | 1009.6 |
| 20260504193633 | 70 | 251 | 2.6 | 7.0 | 0.00 | 0.00 | 0.00 | 36 | 1009.9 |
| 20260504193146 | 71 | 244 | 5.2 | 7.0 | 0.00 | 0.00 | 0.00 | 36 | 1010.0 |
| 20260504192112 | 72 | 207 | 7.0 | 12.2 | 0.00 | 0.00 | 0.00 | 35 | 1010.0 |
| 20260504191059 | 72 | 144 | 3.5 | 7.0 | 0.00 | 0.00 | 0.00 | 36 | 1010.1 |
| 20260504190044 | 71 | 220 | 3.5 | 6.1 | 0.00 | 0.00 | 0.00 | 35 | 1010.4 |
| 20260504185031 | 70 | 251 | 6.1 | 9.6 | 0.00 | 0.00 | 0.00 | 36 | 1010.6 |
| 20260504184017 | 72 | 248 | 3.5 | 8.7 | 0.00 | 0.00 | 0.00 | 35 | 1010.4 |
| 20260504183004 | 70 | 216 | 6.1 | 13.0 | 0.00 | 0.00 | 0.00 | 36 | 1010.9 |
| 20260504181949 | 71 | 245 | 5.2 | 7.0 | 0.00 | 0.00 | 0.00 | 37 | 1010.8 |
| 20260504180936 | 70 | 196 | 4.3 | 7.0 | 0.00 | 0.00 | 0.00 | 35 | 1010.9 |
| 20260504175922 | 71 | 244 | 8.7 | 11.3 | 0.00 | 0.00 | 0.00 | 35 | 1011.2 |
| 20260504174909 | 69 | 193 | 3.5 | 8.7 | 0.00 | 0.00 | 0.00 | 36 | 1011.3 |
| 20260504173855 | 70 | 256 | 2.6 | 7.8 | 0.00 | 0.00 | 0.00 | 35 | 1011.4 |
| 20260504172900 | 68 | 230 | 6.1 | 7.8 | 0.00 | 0.00 | 0.00 | 37 | 1011.5 |
| 20260504171827 | 69 | 175 | 5.2 | 8.7 | 0.00 | 0.00 | 0.00 | 36 | 1011.7 |
| 20260504170812 | 68 | 193 | 3.5 | 8.7 | 0.00 | 0.00 | 0.00 | 36 | 1011.9 |
| 20260504151029 | 65 | 237 | 3.5 | 8.7 | 0.00 | 0.00 | 0.00 | 43 | 1012.9 |
| 20260504140907 | 61 | 185 | 1.7 | 2.6 | 0.00 | 0.00 | 0.00 | 52 | 1013.2 |
| 20260504130743 | 57 | 165 | 3.5 | 9.6 | 0.00 | 0.00 | 0.00 | 62 | 1013.8 |
| 20260504120135 | 51 | 207 | 3.5 | 5.2 | 0.00 | 0.00 | 0.00 | 74 | 1013.9 |
| 20260504081633 | 47 | 203 | 0.9 | 1.7 | 0.00 | 0.00 | 0.00 | 62 | 1014.0 |
| 20260504080558 | 47 | 200 | 0.0 | 1.7 | 0.00 | 0.00 | 0.00 | 62 | 1014.0 |
| 20260504045647 | 47 | 0.0 | 0.0 | 0.00 | 0.00 | 0.00 | 58 | 1013.8 | |
| 20260504045156 | 47 | 0.0 | 0.0 | 0.00 | 0.00 | 0.00 | 58 | 1014.0 | |
| 20260504044123 | 47 | 0.0 | 0.9 | 0.00 | 0.00 | 0.00 | 58 | 1013.9 | |
| 20260504043109 | 48 | 212 | 0.9 | 0.9 | 0.00 | 0.00 | 0.00 | 57 | 1013.9 |
| 20260504042056 | 48 | 0.0 | 0.0 | 0.00 | 0.00 | 0.00 | 58 | 1013.7 | |
| 20260504041041 | 48 | 210 | 0.0 | 0.9 | 0.00 | 0.00 | 0.00 | 58 | 1013.5 |
| 20260504040108 | 49 | 208 | 0.0 | 0.9 | 0.00 | 0.00 | 0.00 | 56 | 1013.6 |
| 20260504035014 | 48 | 211 | 0.0 | 1.7 | 0.00 | 0.00 | 0.00 | 57 | 1013.5 |
| 20260504034000 | 47 | 0.0 | 0.0 | 0.00 | 0.00 | 0.00 | 61 | 1013.4 | |
| 20260504033005 | 48 | 0.0 | 0.0 | 0.00 | 0.00 | 0.00 | 60 | 1013.4 | |
| 20260504031931 | 48 | 0.0 | 0.0 | 0.00 | 0.00 | 0.00 | 58 | 1013.5 | |
| 20260504030918 | 48 | 0.0 | 0.0 | 0.00 | 0.00 | 0.00 | 57 | 1013.4 | |
| 20260504025904 | 48 | 0.0 | 0.0 | 0.00 | 0.00 | 0.00 | 56 | 1013.3 | |
| 20260504024851 | 50 | 207 | 0.9 | 0.9 | 0.00 | 0.00 | 0.00 | 54 | 1013.5 |
| 20260504023837 | 50 | 214 | 1.7 | 1.7 | 0.00 | 0.00 | 0.00 | 51 | 1013.5 |
| 20260504022843 | 50 | 207 | 0.9 | 1.7 | 0.00 | 0.00 | 0.00 | 52 | 1013.3 |
| 20260504021808 | 50 | 206 | 0.0 | 0.9 | 0.00 | 0.00 | 0.00 | 52 | 1013.4 |
| 20260504020835 | 51 | 208 | 0.0 | 0.9 | 0.00 | 0.00 | 0.00 | 50 | 1013.4 |
| 20260504015741 | 51 | 210 | 0.0 | 0.9 | 0.00 | 0.00 | 0.00 | 50 | 1013.2 |
| 20260504014727 | 52 | 213 | 0.0 | 0.9 | 0.00 | 0.00 | 0.00 | 47 | 1013.4 |
| 20260504013713 | 53 | 212 | 0.9 | 1.7 | 0.00 | 0.00 | 0.00 | 45 | 1012.9 |
| 20260504012700 | 53 | 204 | 0.0 | 0.9 | 0.00 | 0.00 | 0.00 | 45 | 1012.8 |
| 20260504011646 | 53 | 230 | 2.6 | 2.6 | 0.00 | 0.00 | 0.00 | 43 | 1012.7 |
| 20260504011200 | 54 | 205 | 0.9 | 1.7 | 0.00 | 0.00 | 0.00 | 44 | 1012.9 |
| 20260504010126 | 54 | 210 | 0.9 | 1.7 | 0.00 | 0.00 | 0.00 | 43 | 1012.7 |
| 20260504005112 | 55 | 229 | 1.7 | 2.6 | 0.00 | 0.00 | 0.00 | 42 | 1012.5 |
| 20260504004118 | 55 | 207 | 0.0 | 1.7 | 0.00 | 0.00 | 0.00 | 41 | 1012.4 |
| 20260504003043 | 56 | 215 | 0.9 | 1.7 | 0.00 | 0.00 | 0.00 | 40 | 1012.4 |
| 20260504002050 | 56 | 206 | 0.0 | 2.6 | 0.00 | 0.00 | 0.00 | 39 | 1012.3 |
| 20260504001017 | 57 | 245 | 3.5 | 5.2 | 0.00 | 0.00 | 0.00 | 38 | 1012.2 |
| 20260504000003 | 57 | 254 | 5.2 | 6.1 | 0.00 | 0.00 | 0.00 | 37 | 1011.9 |
| 20260503235010 | 58 | 215 | 0.9 | 6.1 | 0.00 | 0.00 | 0.00 | 36 | 1012.2 |